169 visiteurs
Prévisions de votre ville :
Vigilance : 6 départements Mise à jour le 15/09/2019 à 16:06 - Voir la carte

Paris Roissy CDG (95380) le 16/09/2019 à 00:30 Choisir station

17°C 68 % N Vit. moyenne 13 kmh/h

Relevés météo quotidiens pour la station de :

UTC
S: Synop
M: Metar
Loc T°C
(°C)
Td
(°C)
HR
(%)
Vis
(km)
Néb
(octa)
Vent
(km/h)
Pression
(mb)
Précipitations
(mm)
Temps
              MOY
10 min
DIR RAF 1h MESURE VAR SUR 3h    
S 00 h 01h 11.2 5.7 69 - 89 122 1018.1 -1.6/3h 0.0/6h - 0.0/3h -
S 01 h 02h 11.2 5.3 67 - 107 126 1016.0 -2.2/3h 0.0/1h -
S 02 h 03h 11.0 5.1 67 - 104 137 1016.8 -1.5/3h 0.0/1h -
S 03 h 04h 11.1 4.8 65 20 0/8 107 139 1015.2 -2.9/3h 0.0/3h
S 04 h 05h 10.8 4.7 66 - 56 81 1014.8 -1.2/3h 0.0/1h -
S 05 h 06h 10.6 4.9 68 - 111 141 1013.2 -3.6/3h 0.0/1h -
S 06 h 07h 10.6 4.5 66 - 57 78 1013.2 -2.0/3h 0.0/12h - 0.0/3h - 0.0/24h -
S 07 h 08h 10.7 5.2 69 - 102 148 1013.5 -1.3/3h 0.0/1h -
S 08 h 09h 11.0 3.8 61 - 56 70 1013.7 +0.5/3h 0.0/1h -
S 09 h 10h 10.9 4.4 64 20 2/8 106 137 1013.7 +0.5/3h 0.0/3h
S 10 h 11h 10.1 3.4 63 - 115 146 1014.1 +0.6/3h 0.0/1h -
S 11 h 12h 9.5 2.1 60 - 117 148 1013.5 -0.2/3h 0.0/1h -
S 12 h 13h 9.3 2.4 62 18 2/8 100 137 1014.5 +0.7/3h 0.0/6h - 0.0/3h
S 13 h 14h 9.6 2.7 62 - 96 128 1013.4 -0.7/3h 0.0/1h -
S 14 h 15h 8.9 1.8 61 - 100 122 1012.8 -0.8/3h 0.0/1h -
S 15 h 16h 8.8 1.0 58 - 94 124 1013.8 -0.7/3h 0.0/3h -
S 16 h 17h 8.7 1.1 59 - 94 117 1014.2 +0.7/3h 0.0/1h -
S 17 h 18h 7.9 1.7 65 - 50 61 1013.6 +0.8/3h 0.0/1h -
S 18 h 19h 7.1 2.4 72 15 5/8 102 135 1015.5 +1.7/3h 0.0/12h - 0.0/3h
S 19 h 20h 6.8 0.0 62 - 85 115 1017.3 +3.0/3h 0.0/1h -
S 20 h 21h 6.2 -1.7 57 - 61 117 1016.8 +3.1/3h 0.0/1h -
S 21 h 22h 6.2 -1.0 60 - 41 54 1017.2 +1.6/3h 0.0/3h -
S 22 h 23h 6.3 -0.5 62 - 41 56 1017.5 +0.2/3h 0.0/1h -
S 23 h 00h 5.7 -1.0 62 - 61 106 1017.0 +0.2/3h 0.0/1h -
evolution des temperatures
cumul des precipitations
vent moyen et rafales
pression atmospherique

Un tiret (-) signifie que les données ne sont pas disponibles.

Passez la souris sur les pictos temps pour avoir plus de précisions. Passez les flèches sur l'icône de la direction du vent pour voir la direction précise en degrés.

Les données de l'heure en cours sont disponibles à partir de H+15 minutes.


S signifie station Synop, plus complète qu'une station Metar (M). Il y a +1h de différence entre l'heure UTC et l'heure légale en hiver et +2h en été.

Td est la mesure du point de rosée.

HR est l'humidité relative/p>

Vis est la visibilité

Néb est la nébulosité du ciel (couverture nuageuse) exprimée en octas (de 0/8 à 8/8).

Vent moy 10 min donne le vent moyen sur les 10 minutes qui précèdent le relevé.

Vent raf 1h donne la rafale maximale mesurée dans l'heure qui précède le relevé.


Les données les plus anciennes remontent à avril 2014.

Les données présentées sur cette page proviennent des stations météo officielles. Les relevés sont effectués aux normes en vigueur (anémomètre à 10m de haut, thermomètre sous abri normalisé à 2m du sol...)

Météo 60 décline toute responsabilité en cas d'absence de données, d'erreurs, de mauvaise utilisation ou interprétation et n'est pas habilité à fournir des certificats intempéries.